Location: Bayshore Village Mobile Home Park
(26.6945°N, 81.8642°W)
Time: 00:59:16
(UTC+00:00)

Cosmos 1452 Rocket - Pass Details

Date: 17 June 2021
Orbit: 768 x 774 km, 74.1° (Epoch: 05 August)

Event Time Altitude Azimuth Distance (km) Brightness Sun altitude
Exits shadow 01:51:16 - 186° (S) 2,358 5.7 -17.5°
Reaches altitude 10° 01:51:23 10° 186° (S) 2,309 5.7 -17.5°
Maximum altitude 01:56:36 69° 104° (ESE) 824 3.4 -18.4°
Drops below altitude 10° 02:01:50 10° 21° (NNE) 2,318 6.2 -19.3°
Sets 02:04:13 0° 19° (NNE) 3,247 7.0 -19.7°
